Temperature
10 10 11 11 11 11 11 11 11 11 11 11 11 11 11 11 11 11 12 11 12 11 11 11 11 11 11 11 11 11 11 11 11 11 11 10 10 10 10 10 9 9 9
10 10 10 10 11 11 11 11 11 11 11 11 11 11 11 11 11 11 11 11 11 11 11 11 11 11 11 11 11 11 11 10 10 10 10 9 9 9 9 9 9 9 9
10 10 10 11 11 11 10 10 10 10 10 10 10 10 10 10 10 11 11 11 11 10 10 10 10 10 10 10 10 10 10 10 9 9 9 9 8 8 9 9 9 8 8
10 10 10 11 11 11 10 10 10 10 10 10 10 10 10 10 10 10 10 10 10 10 10 10 10 10 10 10 10 10 10 9 9 9 8 8 8 7 7 8 8 8 8
10 10 11 11 11 10 10 10 10 10 10 10 10 10 10 10 10 10 10 10 10 10 10 9 9 9 9 9 9 9 9 9 9 8 8 8 8 7 7 7 8 8 8
10 10 10 11 10 10 10 10 10 10 10 10 9 9 9 9 9 9 9 9 9 9 9 9 9 9 9 9 9 9 9 8 8 8 8 8 7 7 7 6 7 7 7
10 10 10 10 10 10 10 10 10 9 9 9 9 9 9 9 9 9 9 9 9 9 9 9 9 8 8 8 8 8 8 8 8 8 7 7 7 7 6 6 6 6 6
10 10 10 10 10 10 10 10 10 9 9 9 9 9 8 8 8 8 8 8 8 8 8 8 8 8 8 8 8 8 8 7 7 7 7 7 7 6 6 6 5 5 5
10 10 10 10 10 10 10 10 9 9 9 9 8 8 8 8 8 8 8 8 8 8 8 8 8 8 8 8 7 7 7 7 7 7 7 6 6 6 6 5 5 4 4
9 10 10 10 10 10 10 9 9 9 9 8 8 8 8 8 8 8 8 8 8 8 8 8 8 7 7 7 7 7 7 6 6 6 6 6 6 5 5 5 5 4 4
9 9 9 9 9 9 9 9 9 9 8 8 8 8 8 8 8 8 8 7 7 7 7 7 7 7 7 7 7 6 6 6 6 6 5 5 5 5 5 5 4 4 4
9 9 9 9 9 9 9 8 8 8 8 8 8 8 8 7 7 7 7 7 7 7 7 7 7 6 6 6 6 6 6 5 5 5 5 5 5 4 4 4 4 4 4
9 9 8 8 8 8 8 8 8 8 8 7 7 7 7 7 7 7 7 6 6 6 6 6 6 6 6 6 5 5 5 5 5 5 4 4 4 4 4 4 4 3 3
8 8 8 8 8 8 8 8 8 7 7 7 7 7 7 7 7 6 6 6 6 6 6 6 5 5 5 5 5 5 5 4 4 4 4 4 3 3 3 3 3 3 3
8 8 8 8 8 7 7 7 7 7 7 7 6 6 6 6 6 6 6 6 6 5 5 5 5 5 5 5 4 4 4 4 4 4 3 3 3 3 2 2 2 2 2
8 8 7 7 7 7 7 7 7 7 6 6 6 6 6 6 6 6 5 5 5 5 5 5 5 5 4 4 4 4 4 3 3 3 3 3 3 2 2 2 2 2 1
7 7 7 7 7 7 7 7 7 6 6 6 6 6 5 5 5 5 5 5 5 5 4 4 4 4 4 4 3 3 3 3 3 3 3 2 2 2 2 2 1 1 1
7 7 7 7 7 6 6 6 6 6 6 6 5 5 5 5 5 5 5 4 4 4 4 4 4 3 3 3 3 3 3 3 3 2 2 2 2 2 1 1 1 1 1
7 7 7 6 6 6 6 6 5 5 5 5 5 5 4 4 4 4 4 4 4 4 4 3 3 3 3 3 3 2 2 2 2 2 2 1 1 1 1 0 1 1 1
6 6 6 6 6 6 5 5 5 5 5 5 4 4 4 4 4 3 3 3 3 3 3 3 3 3 3 2 2 2 2 2 2 2 1 1 1 1 0 -0 -0 -0 0
6 6 5 5 5 5 5 4 4 4 4 4 4 4 3 3 3 3 3 2 2 2 2 2 2 2 2 2 2 1 1 1 1 1 1 1 0 0 -0 -0 -0 -0 -1
5 5 5 5 4 4 4 4 4 4 4 3 3 3 3 3 2 2 2 2 2 2 2 2 2 2 1 1 1 1 1 1 1 1 0 0 -0 -0 -0 -1 -1 -1 -1
4 4 4 4 4 3 3 3 3 3 3 3 3 2 2 2 2 2 2 1 1 1 1 1 1 1 1 1 1 0 0 0 0 0 -0 -0 -0 -1 -1 -1 -1 -1 -2
4 3 3 3 3 3 3 3 3 2 2 2 2 2 2 2 1 1 1 1 1 1 1 0 0 0 0 0 0 -0 -0 -0 -0 -1 -1 -1 -1 -1 -1 -1 -2 -2 -2
3 3 3 3 2 2 2 2 2 2 2 2 1 1 1 1 1 1 1 1 1 0 -0 -0 -0 -0 -0 -0 -1 -1 -1 -1 -1 -1 -1 -1 -1 -1 -1 -2 -2 -2 -2
2 2 2 2 2 2 2 2 1 1 1 1 1 1 0 0 0 0 0 0 -0 -0 -0 -1 -1 -1 -1 -1 -1 -1 -1 -2 -2 -2 -2 -2 -2 -2 -2 -2 -2 -2 -2
Wind_Speed
4 4 4 5 5 4 4 4 4 4 4 3 2 2 1 1 1 2 4 4 5 5 5 3 2 2 2 2 2 1 2 2 2 2 2 3 2 2 1 1 2 3 4
3 3 4 5 5 5 4 4 4 4 4 3 2 1 1 0 1 1 2 3 4 4 3 3 2 2 2 2 2 2 1 1 2 2 1 2 3 2 2 1 1 1 3
7 6 5 5 5 4 4 4 4 4 4 3 3 3 3 2 1 1 1 1 2 3 3 3 2 2 2 1 1 2 2 1 1 1 2 1 1 2 2 1 1 1 1
6 6 6 5 6 5 4 4 4 4 4 4 4 4 2 1 2 1 1 0 1 2 2 3 2 2 1 1 1 1 1 2 1 0 1 1 2 1 2 3 2 2 1
6 7 7 7 6 5 5 4 4 4 3 3 4 4 2 1 1 1 1 1 1 1 2 2 2 1 1 1 1 1 1 1 2 1 1 1 1 1 1 3 3 3 3
6 6 5 5 4 4 4 4 4 4 3 3 3 4 4 3 2 1 1 1 1 1 1 2 2 2 2 2 2 2 2 2 2 1 1 1 1 1 1 2 3 4 4
6 6 6 5 5 5 6 5 5 4 4 4 3 4 4 4 4 3 2 2 1 1 2 2 2 2 3 3 3 2 2 2 2 2 2 2 2 2 2 2 2 3 3
6 7 7 7 6 6 6 6 6 5 4 4 4 3 3 3 3 3 3 3 3 3 3 3 3 3 3 3 3 2 2 2 3 3 3 2 2 2 2 2 2 2 3
5 6 6 6 6 6 6 6 6 5 5 4 4 3 3 3 3 3 3 2 3 2 2 3 3 3 3 3 3 2 2 3 3 3 3 2 2 2 2 2 3 3 3
4 5 5 6 6 6 5 5 5 6 5 4 4 3 3 3 3 3 3 3 3 2 2 2 3 3 3 3 3 3 3 3 3 3 4 3 2 2 2 3 3 3 4
5 5 5 5 4 4 4 4 4 4 4 4 4 3 3 3 3 3 3 3 3 3 3 3 3 3 3 3 3 3 3 4 4 3 4 4 3 3 3 3 3 3 3
5 4 4 3 3 3 3 4 4 4 4 4 4 4 3 2 3 3 3 3 3 3 3 3 3 3 3 3 4 4 4 4 4 4 4 4 3 4 3 3 4 4 4
3 3 3 3 4 4 3 3 4 4 4 3 3 3 2 3 3 4 3 3 3 3 3 3 3 3 4 4 4 5 4 4 5 4 5 5 4 5 4 4 4 4 4
4 4 3 3 3 3 3 3 3 3 3 3 2 3 3 4 4 3 3 3 3 3 4 4 4 4 4 4 4 4 5 5 5 5 5 5 5 6 5 5 5 4 4
3 4 4 4 3 3 3 3 3 3 3 3 3 4 3 3 3 3 3 3 3 3 4 3 3 4 4 4 5 5 5 5 5 5 5 6 7 8 7 5 5 5 4
5 4 4 4 4 4 4 4 3 3 3 4 4 4 3 2 3 3 3 3 3 3 3 3 4 4 4 7 8 6 5 5 5 5 5 6 7 8 10 10 9 7 6
5 5 5 5 5 5 5 5 5 4 3 4 4 3 3 3 3 3 2 3 3 3 4 4 4 5 6 9 9 9 5 5 6 6 5 5 5 7 5 8 10 9 11
5 5 5 5 4 4 4 4 3 3 4 4 4 4 4 4 3 3 3 3 3 3 4 5 5 5 7 9 9 9 5 5 6 6 6 6 6 6 6 5 6 7 7
5 5 5 4 3 3 3 2 2 3 3 4 4 4 4 4 3 4 4 3 3 3 4 4 4 5 7 8 9 8 4 5 6 6 6 6 7 10 10 6 7 8 7
3 3 2 2 2 3 2 3 3 3 5 5 5 4 4 4 4 4 4 3 3 3 4 4 4 5 6 8 9 7 3 5 5 5 6 9 10 11 11 7 7 9 8
2 2 2 2 3 3 3 3 4 5 6 4 3 3 3 3 4 3 2 2 2 3 3 5 5 5 7 8 9 8 4 5 5 5 5 6 11 12 12 10 8 11 10
1 1 2 2 3 2 3 4 5 5 3 2 2 3 3 2 2 2 2 2 2 3 4 4 5 5 5 7 8 10 9 7 6 6 5 6 11 12 13 10 11 14 11
2 2 2 2 3 3 4 5 4 2 2 2 2 2 2 2 2 2 3 2 2 3 4 4 5 5 4 5 10 10 11 11 7 6 9 10 12 12 9 11 13 10 6
2 2 2 2 3 3 3 4 3 2 2 2 2 2 2 2 2 2 3 3 3 4 4 5 5 6 5 5 5 5 6 8 7 6 8 11 12 9 9 9 8 5 6
2 2 3 3 4 3 3 3 2 2 2 2 2 2 2 3 3 3 3 4 5 5 5 5 5 6 7 7 9 7 5 5 6 5 4 4 4 5 5 5 5 5 5
3 3 3 4 4 3 3 3 3 3 3 2 3 2 2 3 3 3 4 6 7 9 10 10 9 8 10 13 13 13 13 13 11 7 5 6 6 7 7 6 6 5 6
Wind_Direction
208 176 162 160 141 132 132 132 136 133 125 118 111 102 101 93 95 108 105 95 99 102 100 90 68 71 89 81 73 86 72 38 16 43 14 359 13 57 68 75 80 65 57
198 180 169 156 148 150 157 150 151 140 137 136 132 130 131 136 154 110 100 106 101 102 110 107 103 87 87 75 69 81 93 48 39 76 78 3 347 354 7 27 70 56 52
199 183 170 161 160 165 175 175 165 154 146 133 110 88 68 54 57 90 74 79 104 99 109 115 112 106 106 118 112 120 122 124 359 66 127 123 263 309 319 330 7 2 354
195 178 175 175 180 188 178 167 166 162 159 147 141 139 140 159 211 183 176 173 139 133 132 126 123 117 118 133 144 118 136 146 172 333 59 153 166 183 305 308 306 310 290
196 189 190 188 186 179 171 165 157 162 164 156 154 155 152 162 141 119 144 181 205 190 183 165 154 161 170 176 151 115 135 159 177 197 193 88 86 146 190 284 304 306 278
198 196 195 177 177 169 166 162 157 168 170 165 164 172 174 165 144 153 176 204 225 218 209 197 188 197 195 198 189 175 181 186 184 193 189 174 177 194 191 247 286 294 286
192 191 187 183 183 179 179 174 170 179 178 173 179 186 186 179 185 190 200 207 214 225 230 212 204 212 214 210 193 175 195 194 192 198 202 204 208 198 193 211 264 289 294
195 194 195 193 191 186 182 180 183 186 183 184 193 190 182 183 197 197 200 210 220 226 224 215 209 217 220 213 195 185 209 203 202 212 208 213 228 206 196 194 214 291 297
197 195 192 190 191 189 191 191 191 194 191 192 191 194 194 193 204 202 200 214 225 228 221 218 218 221 221 213 196 200 216 210 212 219 220 220 231 225 217 205 196 205 268
193 193 192 196 200 198 196 189 191 197 196 191 196 203 207 208 212 204 211 226 233 225 217 229 226 229 228 224 206 210 217 213 224 218 216 227 232 235 229 220 216 207 221
200 197 198 198 194 184 180 183 187 188 191 196 199 200 210 214 210 217 224 225 229 225 230 236 236 233 234 232 219 220 220 221 233 231 220 232 230 226 230 226 226 225 217
196 193 188 177 173 178 183 185 190 192 199 196 196 204 207 207 214 231 238 229 231 233 233 235 237 242 240 233 225 227 225 223 232 236 230 239 234 231 231 228 232 234 228
185 181 176 181 188 190 189 194 198 203 201 186 188 202 212 220 233 241 243 237 232 239 238 234 237 245 246 240 236 230 229 228 231 232 233 240 229 240 239 236 239 241 244
188 186 191 198 201 200 195 196 206 202 189 180 193 216 230 232 236 240 238 235 231 233 237 237 239 245 248 245 242 236 234 236 237 234 235 240 234 239 241 243 242 242 246
193 194 196 200 201 201 203 202 206 202 187 186 208 227 233 232 234 239 243 240 236 241 238 240 249 250 249 247 243 237 233 233 241 243 241 242 241 240 242 246 242 240 247
212 211 205 200 205 209 210 207 210 211 196 204 223 231 228 233 239 246 249 249 250 253 250 243 242 247 253 259 253 245 235 234 237 246 249 250 250 250 256 261 258 246 246
217 216 215 213 214 214 210 210 214 204 200 217 231 233 226 232 240 246 247 246 248 251 253 250 245 249 256 266 267 257 243 234 238 241 246 256 255 255 249 265 270 264 260
214 222 221 219 219 215 217 217 205 198 206 218 229 231 224 232 242 243 246 247 247 248 251 252 250 255 265 271 272 268 250 240 243 241 241 247 255 250 248 252 261 262 263
216 219 219 216 215 221 220 203 209 208 215 230 235 232 222 228 235 242 250 249 249 257 257 259 255 259 273 277 276 273 252 249 251 249 244 244 249 259 260 255 261 269 270
205 203 198 191 214 234 202 192 219 220 232 238 236 226 218 221 232 242 250 250 250 262 270 273 266 262 269 278 280 275 248 254 260 258 252 251 254 264 265 252 253 266 271
208 193 186 204 227 224 189 212 229 237 242 241 233 230 226 229 233 238 244 252 263 276 277 277 276 268 267 279 281 275 249 245 256 262 260 255 262 266 267 262 254 262 272
221 207 206 238 247 215 192 222 240 246 240 225 233 242 245 247 244 235 252 251 249 269 279 284 289 281 277 277 280 280 271 261 253 258 257 257 267 269 271 269 264 270 277
234 234 220 243 254 227 203 221 241 229 206 208 233 250 258 261 250 238 249 263 252 258 274 278 282 287 280 277 281 284 284 277 264 259 262 268 272 275 274 270 270 272 264
245 234 219 237 254 247 235 231 235 212 194 216 241 249 252 268 267 253 245 250 255 261 267 270 276 282 284 278 274 274 281 283 277 271 271 274 275 270 266 272 271 255 246
250 232 226 239 253 256 251 244 223 193 204 228 243 256 253 256 267 264 251 249 246 243 255 262 262 270 280 276 275 277 271 261 261 272 270 266 270 267 263 261 259 252 251
242 237 240 246 255 254 252 249 224 198 203 231 248 251 255 261 264 276 290 270 261 270 268 266 265 265 269 283 287 286 285 280 274 272 259 260 259 261 262 262 262 254 250
Height
1496 1498 1499 1500 1500 1501 1502 1503 1504 1505 1507 1508 1509 1511 1511 1512 1513 1513 1514 1514 1515 1516 1517 1517 1518 1518 1518 1518 1518 1518 1518 1518 1518 1518 1518 1518 1518 1518 1518 1519 1518 1518 1518
1495 1496 1497 1498 1498 1500 1502 1502 1503 1504 1505 1507 1509 1509 1510 1511 1511 1512 1512 1513 1513 1514 1515 1515 1516 1516 1516 1516 1516 1516 1516 1516 1516 1516 1516 1516 1517 1517 1517 1517 1516 1516 1516
1493 1493 1494 1495 1497 1499 1500 1501 1503 1503 1505 1506 1508 1508 1509 1509 1509 1510 1510 1511 1511 1512 1513 1514 1514 1514 1514 1514 1514 1514 1514 1514 1514 1514 1515 1514 1514 1514 1514 1514 1514 1514 1513
1490 1491 1493 1494 1496 1498 1499 1501 1502 1503 1504 1505 1506 1506 1507 1507 1508 1508 1508 1509 1510 1511 1511 1512 1512 1512 1512 1512 1512 1512 1512 1513 1512 1512 1512 1513 1512 1512 1511 1512 1512 1511 1511
1490 1490 1492 1494 1495 1497 1498 1500 1501 1501 1503 1503 1504 1505 1506 1506 1506 1506 1506 1508 1508 1509 1509 1510 1510 1510 1510 1510 1510 1510 1510 1510 1510 1510 1510 1510 1510 1509 1509 1508 1508 1508 1508
1489 1490 1492 1493 1495 1496 1497 1498 1499 1500 1501 1501 1502 1503 1504 1504 1505 1504 1505 1505 1506 1507 1507 1507 1508 1508 1508 1508 1507 1507 1508 1508 1508 1508 1508 1507 1507 1507 1506 1506 1504 1504 1504
1487 1489 1490 1491 1493 1494 1495 1496 1497 1498 1498 1499 1500 1501 1502 1503 1503 1503 1503 1503 1504 1504 1505 1505 1505 1505 1505 1505 1504 1504 1505 1505 1505 1505 1505 1505 1505 1504 1504 1503 1502 1501 1500
1485 1487 1488 1489 1490 1491 1493 1494 1495 1496 1497 1497 1498 1499 1500 1500 1501 1501 1502 1502 1502 1502 1502 1502 1502 1502 1502 1502 1501 1501 1502 1502 1502 1502 1502 1502 1502 1501 1501 1501 1500 1497 1496
1483 1484 1486 1487 1488 1490 1491 1491 1493 1494 1495 1495 1496 1497 1497 1498 1499 1499 1499 1499 1499 1499 1499 1499 1499 1499 1498 1498 1498 1497 1498 1498 1498 1498 1498 1498 1498 1498 1498 1497 1497 1496 1493
1480 1482 1483 1485 1487 1488 1489 1490 1490 1491 1492 1493 1494 1494 1495 1496 1496 1496 1496 1496 1496 1496 1496 1495 1495 1495 1495 1495 1494 1494 1494 1494 1494 1494 1494 1494 1494 1494 1494 1493 1493 1492 1491
1478 1479 1481 1482 1484 1485 1486 1487 1488 1488 1489 1490 1491 1492 1492 1493 1493 1493 1493 1493 1493 1493 1493 1492 1492 1491 1491 1491 1490 1490 1490 1490 1490 1490 1490 1490 1490 1490 1489 1489 1488 1488 1486
1476 1477 1478 1480 1481 1482 1483 1484 1485 1486 1487 1487 1488 1489 1489 1490 1490 1490 1489 1490 1489 1489 1489 1489 1488 1487 1487 1487 1487 1486 1486 1486 1486 1486 1486 1486 1485 1485 1485 1484 1483 1482 1481
1474 1475 1476 1477 1478 1479 1480 1481 1482 1483 1484 1484 1485 1485 1486 1486 1486 1486 1486 1486 1486 1486 1485 1485 1484 1484 1483 1483 1483 1482 1481 1481 1481 1481 1481 1481 1481 1480 1479 1479 1478 1477 1476
1472 1473 1474 1475 1476 1477 1478 1479 1480 1480 1481 1481 1482 1482 1482 1483 1483 1483 1483 1483 1482 1482 1482 1481 1480 1480 1480 1479 1479 1478 1478 1477 1477 1477 1477 1476 1476 1475 1474 1474 1473 1472 1471
1470 1471 1472 1473 1474 1475 1476 1476 1477 1477 1478 1478 1478 1478 1479 1479 1479 1479 1479 1479 1478 1478 1477 1476 1476 1476 1475 1475 1474 1474 1473 1473 1472 1472 1472 1471 1471 1470 1470 1469 1468 1467 1465
1468 1469 1470 1471 1471 1472 1472 1473 1474 1474 1474 1474 1475 1475 1475 1475 1475 1475 1475 1474 1474 1473 1473 1472 1472 1472 1471 1471 1470 1469 1468 1468 1467 1467 1467 1466 1466 1465 1464 1463 1463 1462 1461
1466 1466 1467 1468 1468 1469 1470 1470 1470 1471 1471 1471 1471 1471 1471 1471 1471 1471 1470 1470 1469 1469 1468 1468 1467 1467 1466 1466 1465 1464 1463 1463 1462 1462 1461 1461 1460 1460 1459 1458 1457 1456 1455
1463 1464 1464 1465 1466 1466 1467 1467 1467 1467 1467 1467 1467 1467 1467 1467 1467 1466 1466 1465 1465 1464 1464 1463 1462 1461 1461 1461 1460 1459 1458 1457 1457 1456 1456 1455 1455 1454 1453 1452 1451 1450 1449
1460 1461 1462 1462 1463 1463 1463 1463 1464 1463 1463 1463 1463 1463 1463 1463 1462 1462 1461 1461 1460 1460 1459 1458 1457 1457 1456 1456 1455 1454 1453 1452 1451 1451 1451 1450 1449 1449 1448 1446 1445 1443 1442
1458 1458 1459 1459 1459 1459 1460 1460 1460 1460 1459 1459 1459 1459 1458 1458 1458 1458 1457 1456 1456 1455 1455 1454 1453 1452 1452 1451 1450 1449 1447 1446 1446 1445 1445 1444 1443 1443 1442 1441 1439 1437 1436
1455 1455 1455 1455 1455 1456 1456 1456 1456 1456 1456 1455 1455 1455 1454 1454 1454 1453 1453 1452 1452 1451 1450 1449 1449 1448 1447 1446 1445 1444 1443 1441 1440 1439 1438 1438 1438 1437 1436 1435 1433 1431 1430
1451 1451 1451 1451 1452 1452 1452 1452 1451 1451 1452 1451 1451 1451 1451 1450 1450 1449 1449 1448 1448 1447 1445 1444 1444 1443 1442 1441 1440 1439 1438 1436 1435 1433 1433 1432 1432 1430 1429 1428 1427 1426 1424
1448 1448 1448 1448 1448 1448 1448 1448 1448 1448 1447 1447 1447 1447 1447 1446 1446 1446 1445 1444 1443 1442 1441 1440 1439 1438 1437 1436 1435 1433 1432 1431 1429 1428 1427 1426 1425 1424 1423 1422 1421 1420 1418
1445 1445 1444 1444 1444 1445 1444 1444 1444 1444 1443 1443 1443 1443 1442 1442 1442 1441 1441 1440 1439 1437 1436 1435 1434 1432 1431 1430 1429 1427 1426 1424 1423 1422 1421 1420 1419 1418 1416 1415 1414 1413 1412
1442 1441 1441 1441 1440 1440 1440 1441 1440 1440 1439 1439 1439 1438 1438 1438 1437 1437 1436 1435 1434 1433 1432 1430 1429 1427 1426 1425 1424 1422 1420 1418 1417 1415 1414 1413 1412 1411 1410 1409 1408 1406 1405
1438 1438 1438 1437 1437 1437 1437 1437 1436 1436 1436 1435 1434 1434 1434 1433 1433 1432 1431 1430 1430 1428 1427 1425 1424 1422 1421 1419 1417 1416 1414 1412 1411 1410 1408 1406 1405 1404 1403 1402 1401 1400 1398